TimeEST,TemperatureF,Dew PointF,Humidity,Sea Level PressureIn,VisibilityMPH,Wind Direction,Wind SpeedMPH,Gust SpeedMPH,PrecipitationIn,Events,Conditions,WindDirDegrees,DateUTC
12:38 AM,35.6,35.6,100,29.86,6.0,SW,3.5,-,N/A,,Overcast,220,2013-02-05 05:38:00
12:52 AM,36.0,35.1,97,29.87,5.0,SW,3.5,-,N/A,,Overcast,230,2013-02-05 05:52:00
1:13 AM,35.6,35.6,100,29.86,2.0,Calm,Calm,-,N/A,,Overcast,0,2013-02-05 06:13:00
1:52 AM,35.1,34.0,96,29.86,0.5,Calm,Calm,-,N/A,,Overcast,0,2013-02-05 06:52:00
2:52 AM,34.0,33.1,96,29.88,0.5,NW,3.5,-,0.00,Fog,Light Drizzle,310,2013-02-05 07:52:00
3:30 AM,33.8,33.8,100,29.85,2.0,NNW,5.8,-,0.00,,Overcast,340,2013-02-05 08:30:00
3:52 AM,33.1,32.0,96,29.87,2.0,NNW,9.2,-,0.00,,Overcast,340,2013-02-05 08:52:00
4:37 AM,32.0,30.2,93,29.87,1.0,NNW,12.7,-,N/A,,Overcast,340,2013-02-05 09:37:00
4:52 AM,30.9,30.0,96,29.90,1.0,North,11.5,-,N/A,,Overcast,360,2013-02-05 09:52:00
5:19 AM,30.2,28.4,93,29.88,1.0,NNW,5.8,-,N/A,,Overcast,340,2013-02-05 10:19:00
5:52 AM,30.9,27.0,85,29.88,5.0,NNW,5.8,-,N/A,,Overcast,340,2013-02-05 10:52:00
6:52 AM,28.9,26.1,89,29.89,5.0,NNW,5.8,-,N/A,,Mostly Cloudy,330,2013-02-05 11:52:00
7:13 AM,26.6,24.8,93,29.89,4.0,NW,5.8,-,N/A,,Scattered Clouds,320,2013-02-05 12:13:00
7:43 AM,26.6,24.8,93,29.90,3.0,NW,6.9,-,N/A,,Mostly Cloudy,320,2013-02-05 12:43:00
7:52 AM,27.0,25.0,92,29.94,2.5,NW,6.9,-,N/A,,Mostly Cloudy,320,2013-02-05 12:52:00
8:06 AM,24.8,23.0,93,29.92,2.5,NW,5.8,-,N/A,,Mostly Cloudy,320,2013-02-05 13:06:00
8:52 AM,26.1,23.0,88,29.96,3.0,NW,4.6,-,N/A,,Partly Cloudy,310,2013-02-05 13:52:00
9:52 AM,30.9,25.0,79,29.95,4.0,NW,4.6,-,N/A,,Haze,310,2013-02-05 14:52:00
10:52 AM,30.9,26.1,82,29.95,4.0,Calm,Calm,-,N/A,,Haze,0,2013-02-05 15:52:00
11:52 AM,32.0,27.0,82,29.97,6.0,West,5.8,-,N/A,,Haze,270,2013-02-05 16:52:00
12:52 PM,33.1,27.0,78,29.94,7.0,WSW,8.1,-,N/A,,Overcast,250,2013-02-05 17:52:00
1:52 PM,34.0,28.0,79,29.90,7.0,SSW,8.1,-,N/A,,Overcast,200,2013-02-05 18:52:00
2:52 PM,36.0,30.0,79,29.91,6.0,SSW,6.9,-,N/A,,Haze,210,2013-02-05 19:52:00
3:52 PM,36.0,30.0,79,29.88,6.0,SSW,6.9,-,N/A,,Haze,200,2013-02-05 20:52:00
4:52 PM,37.0,30.9,79,29.86,6.0,SSW,4.6,-,N/A,,Haze,200,2013-02-05 21:52:00
5:52 PM,37.0,30.9,79,29.87,6.0,NW,3.5,-,N/A,,Haze,310,2013-02-05 22:52:00
6:52 PM,36.0,30.9,82,29.89,7.0,West,3.5,-,N/A,,Mostly Cloudy,270,2013-02-05 23:52:00
7:52 PM,35.1,30.9,85,29.94,7.0,NW,8.1,-,N/A,,Scattered Clouds,310,2013-02-06 00:52:00
8:36 PM,37.4,30.2,75,29.94,8.0,WNW,12.7,-,N/A,,Overcast,300,2013-02-06 01:36:00
8:52 PM,37.0,30.9,79,29.97,8.0,WNW,9.2,-,N/A,,Overcast,300,2013-02-06 01:52:00
9:52 PM,36.0,30.9,82,29.99,8.0,West,4.6,-,N/A,,Overcast,270,2013-02-06 02:52:00
10:23 PM,37.4,30.2,75,29.98,8.0,West,6.9,-,N/A,,Overcast,260,2013-02-06 03:23:00
10:52 PM,37.0,30.9,79,30.01,8.0,West,6.9,-,N/A,,Overcast,270,2013-02-06 03:52:00
11:33 PM,37.4,30.2,75,30.00,8.0,WNW,11.5,-,N/A,,Overcast,290,2013-02-06 04:33:00
11:52 PM,37.0,30.9,79,30.02,8.0,WNW,11.5,-,N/A,,Overcast,290,2013-02-06 04:52:00